Total_Precipitation_Accumulation
0.35 0.04 0.04 0.09 0.51 0.53 1.77 1.63 2.19 1.16 1.60 1.03 1.21 1.03 1.44 0.42 0.51 1.05 0.72 0.35 0.55 0.13 0.27 0.05 0.05 0.08 0.86 0.47 0.22 0.33 0.21 1.14 0.22 2.05 1.25 0.71 0.44 0.53 0.51 0.58 0.63 0.58 0.31 0.31 0.39 0.63 0.85 0.49 0.74 0.88 0.98 0.71 0.66 0.82 0.61 0.58 0.78 0.68 0.74 0.50 0.29 0.27 0.28 0.10 0.06 0.05 0.05 0.05 0.04 0.03 0.06 0.04 0.08 0.11 0.08 0.07 0.11 0.08 0.06 0.05 0.12 0.08 0.07 0.11 0.13 0.08 0.05 0.05 0.11 0.12 0.08 0.11 0.12 0.17 0.20 0.12 0.12
0.08 0.02 0.07 0.26 0.66 2.32 1.88 0.82 1.72 1.40 0.86 1.30 1.08 1.08 0.95 0.74 0.71 0.69 0.39 1.02 0.43 0.32 0.04 0.11 0.04 0.06 0.13 0.04 0.09 0.09 0.12 0.16 0.09 0.18 0.27 0.32 0.45 0.51 0.32 0.41 0.26 0.35 0.25 0.21 0.23 0.54 0.47 0.74 0.72 0.73 0.62 0.48 0.44 0.41 0.58 0.80 0.54 0.64 0.43 0.25 0.28 0.22 0.12 0.07 0.05 0.05 0.03 0.03 0.05 0.14 0.07 0.08 0.11 0.09 0.07 0.10 0.08 0.11 0.07 0.12 0.13 0.09 0.11 0.09 0.11 0.08 0.07 0.08 0.06 0.07 0.10 0.14 0.20 0.16 0.14 0.24 0.15
0.05 0.09 0.20 0.54 0.45 0.80 1.05 1.06 1.72 1.10 1.33 1.11 0.88 0.93 0.86 0.58 1.01 0.67 0.53 0.27 0.12 0.04 0.09 0.09 0.07 0.21 0.21 0.06 0.14 0.26 0.25 0.20 0.08 0.09 0.39 0.38 0.53 0.73 0.31 0.20 0.28 0.20 0.25 0.27 0.24 0.37 0.38 0.52 0.31 0.60 0.60 0.56 0.29 0.39 0.53 0.46 0.29 0.34 0.46 0.20 0.29 0.13 0.11 0.06 0.04 0.04 0.05 0.08 0.10 0.08 0.08 0.11 0.12 0.07 0.06 0.12 0.16 0.16 0.23 0.11 0.17 0.09 0.15 0.08 0.12 0.09 0.09 0.11 0.10 0.08 0.11 0.12 0.14 0.21 0.15 0.16 0.11
0.11 0.19 0.61 0.49 1.86 0.93 0.92 1.59 0.78 1.37 1.28 0.56 1.01 0.64 0.74 0.82 0.80 0.62 0.30 0.18 0.15 0.06 0.12 0.20 0.44 0.03 0.17 0.09 0.14 0.07 0.10 0.27 0.14 0.06 0.54 0.55 0.26 0.32 0.20 0.24 0.17 0.15 0.20 0.29 0.25 0.30 0.38 0.36 0.24 0.29 0.37 0.34 0.23 0.35 0.30 0.31 0.26 0.20 0.24 0.14 0.14 0.15 0.07 0.07 0.04 0.05 0.03 0.04 0.06 0.08 0.12 0.16 0.09 0.10 0.08 0.12 0.16 0.28 0.22 0.14 0.20 0.16 0.17 0.18 0.18 0.11 0.08 0.12 0.11 0.15 0.17 0.19 0.14 0.10 0.16 0.10 0.14
0.17 0.54 0.36 0.80 1.35 1.71 1.39 1.28 0.88 0.86 1.02 0.78 1.09 0.61 0.28 0.23 0.45 0.08 0.09 0.28 0.07 0.23 0.05 0.12 0.10 0.13 0.11 0.13 0.16 0.51 0.16 0.12 0.12 0.06 0.13 0.19 0.08 0.15 0.14 0.18 0.21 0.22 0.23 0.18 0.22 0.28 0.25 0.21 0.23 0.18 0.26 0.23 0.14 0.21 0.20 0.19 0.15 0.15 0.20 0.14 0.13 0.07 0.11 0.11 0.11 0.09 0.08 0.08 0.11 0.18 0.10 0.15 0.13 0.16 0.13 0.11 0.24 0.18 0.19 0.22 0.19 0.21 0.20 0.13 0.17 0.14 0.16 0.17 0.18 0.22 0.18 0.30 0.17 0.14 0.12 0.12 0.19
0.15 0.27 0.50 1.33 3.05 0.92 1.19 1.16 1.04 0.75 1.00 0.39 0.73 0.63 0.41 0.55 0.52 0.15 0.18 0.18 0.14 0.28 0.07 0.14 0.13 0.19 0.12 0.04 0.06 0.09 0.06 0.34 0.14 0.09 0.13 0.22 0.13 0.20 0.17 0.15 0.22 0.20 0.24 0.26 0.23 0.19 0.35 0.13 0.25 0.17 0.12 0.18 0.12 0.12 0.13 0.15 0.10 0.14 0.15 0.09 0.08 0.10 0.09 0.09 0.11 0.13 0.14 0.19 0.06 0.15 0.17 0.23 0.09 0.14 0.09 0.14 0.21 0.17 0.13 0.21 0.18 0.24 0.13 0.16 0.19 0.08 0.11 0.10 0.24 0.17 0.14 0.21 0.12 0.11 0.08 0.15 0.20
0.39 0.57 1.00 0.89 0.74 1.20 1.19 0.89 0.32 0.56 0.67 0.39 0.42 0.45 0.52 0.21 0.29 0.32 0.04 0.15 0.13 0.08 0.05 0.05 0.02 0.05 0.20 0.11 0.05 0.04 0.05 0.03 0.09 0.07 0.03 0.10 0.14 0.11 0.12 0.17 0.21 0.23 0.27 0.19 0.14 0.15 0.21 0.11 0.14 0.16 0.16 0.13 0.14 0.14 0.13 0.14 0.08 0.08 0.10 0.09 0.06 0.08 0.09 0.10 0.10 0.11 0.06 0.08 0.13 0.14 0.18 0.12 0.16 0.12 0.15 0.15 0.12 0.20 0.14 0.10 0.09 0.12 0.11 0.11 0.06 0.08 0.10 0.11 0.13 0.10 0.10 0.11 0.08 0.04 0.16 0.21 0.18
0.06 0.68 0.50 0.88 0.94 0.81 0.80 0.55 0.69 0.64 0.24 0.68 0.16 0.28 0.09 0.06 0.16 0.36 0.06 0.15 0.01 0.06 0.07 0.07 0.09 0.15 0.18 0.03 0.38 0.18 0.06 0.02 0.03 0.01 0.04 0.05 0.08 0.13 0.15 0.17 0.28 0.21 0.20 0.15 0.15 0.23 0.14 0.11 0.12 0.20 0.20 0.15 0.13 0.11 0.19 0.11 0.08 0.11 0.09 0.07 0.12 0.13 0.12 0.12 0.08 0.07 0.15 0.10 0.07 0.13 0.18 0.13 0.14 0.11 0.07 0.11 0.07 0.08 0.07 0.08 0.12 0.13 0.08 0.12 0.09 0.09 0.13 0.08 0.06 0.07 0.09 0.06 0.04 0.03 0.06 0.09 0.07
0.07 0.62 0.52 0.73 1.06 0.51 0.60 0.69 0.55 0.42 0.23 0.05 0.17 0.23 0.09 0.03 0.09 0.08 0.06 0.03 0.02 0.02 0.04 0.10 0.08 0.16 0.38 0.18 0.26 0.18 0.11 0.05 0.00 0.02 0.02 0.06 0.10 0.12 0.11 0.14 0.17 0.20 0.16 0.12 0.10 0.16 0.26 0.07 0.11 0.11 0.13 0.11 0.13 0.17 0.18 0.10 0.07 0.09 0.09 0.11 0.07 0.07 0.11 0.14 0.07 0.06 0.18 0.14 0.19 0.14 0.23 0.19 0.06 0.07 0.08 0.07 0.09 0.09 0.06 0.07 0.07 0.08 0.09 0.07 0.05 0.11 0.07 0.05 0.04 0.04 0.03 0.03 0.03 0.03 0.07 0.04 0.05
0.47 0.28 1.72 0.75 0.37 1.06 0.36 0.20 0.59 0.70 0.49 0.44 0.56 0.25 0.36 0.06 0.08 0.20 0.03 0.02 0.02 0.03 0.07 0.08 0.05 0.38 0.15 0.27 0.13 0.15 0.13 0.03 0.01 0.02 0.03 0.04 0.06 0.06 0.09 0.11 0.10 0.08 0.13 0.18 0.07 0.11 0.16 0.18 0.11 0.09 0.16 0.13 0.16 0.15 0.12 0.21 0.12 0.07 0.08 0.08 0.11 0.11 0.11 0.05 0.09 0.17 0.14 0.14 0.18 0.13 0.10 0.14 0.05 0.03 0.05 0.06 0.04 0.06 0.07 0.07 0.02 0.06 0.07 0.03 0.08 0.06 0.07 0.04 0.05 0.04 0.03 0.03 0.03 0.04 0.03 0.05 0.12
0.66 0.13 0.14 1.32 0.90 0.51 0.63 0.34 0.26 0.26 0.12 0.29 0.24 0.17 0.30 0.17 0.12 0.23 0.08 0.04 0.02 0.01 0.05 0.04 0.16 0.12 0.07 0.16 0.23 0.11 0.03 0.02 0.01 0.04 0.05 0.04 0.04 0.08 0.09 0.16 0.08 0.06 0.12 0.16 0.09 0.14 0.29 0.29 0.16 0.12 0.13 0.16 0.16 0.13 0.15 0.30 0.12 0.09 0.04 0.04 0.05 0.08 0.04 0.05 0.07 0.08 0.13 0.07 0.11 0.07 0.02 0.07 0.03 0.06 0.06 0.02 0.03 0.04 0.06 0.06 0.04 0.04 0.03 0.03 0.03 0.04 0.03 0.03 0.03 0.04 0.05 0.05 0.05 0.06 0.05 0.07 0.14
0.82 0.55 0.45 0.92 0.61 0.70 0.37 0.48 0.11 0.42 0.33 0.45 0.43 0.18 0.29 0.04 0.05 0.06 0.11 0.08 0.01 0.00 0.01 0.07 0.19 0.06 0.11 0.14 0.19 0.25 0.06 0.03 0.04 0.01 0.05 0.04 0.06 0.05 0.08 0.08 0.09 0.09 0.08 0.19 0.09 0.11 0.17 0.26 0.39 0.30 0.08 0.10 0.15 0.21 0.11 0.12 0.10 0.09 0.08 0.06 0.04 0.05 0.07 0.06 0.07 0.10 0.08 0.06 0.09 0.04 0.17 0.19 0.11 0.10 0.13 0.11 0.03 0.02 0.07 0.05 0.02 0.03 0.03 0.03 0.05 0.06 0.04 0.07 0.06 0.05 0.05 0.06 0.07 0.03 0.05 0.10 0.20
0.68 0.79 0.83 0.92 0.45 0.50 0.37 0.33 0.29 0.18 0.38 0.37 0.04 0.05 0.08 0.17 0.08 0.01 0.02 0.01 0.00 0.01 0.02 0.21 0.01 0.03 0.05 0.10 0.18 0.13 0.10 0.05 0.02 0.01 0.03 0.03 0.03 0.05 0.05 0.07 0.05 0.05 0.06 0.07 0.14 0.17 0.19 0.16 0.28 0.34 0.25 0.09 0.22 0.17 0.15 0.10 0.23 0.13 0.04 0.03 0.04 0.04 0.05 0.06 0.05 0.06 0.02 0.03 0.09 0.24 0.16 0.25 0.20 0.13 0.22 0.15 0.11 0.04 0.05 0.03 0.03 0.08 0.09 0.07 0.08 0.03 0.07 0.05 0.04 0.07 0.09 0.07 0.04 0.05 0.07 0.05 0.16
0.25 0.72 1.01 0.92 0.14 0.09 0.48 0.58 0.21 0.29 0.95 0.10 0.31 0.12 0.09 0.02 0.08 0.08 0.03 0.04 0.01 0.13 0.02 0.07 0.03 0.04 0.20 0.03 0.48 0.19 0.05 0.04 0.02 0.03 0.03 0.04 0.03 0.04 0.04 0.04 0.06 0.06 0.09 0.12 0.10 0.14 0.24 0.20 0.22 0.25 0.30 0.38 0.44 0.30 0.22 0.19 0.11 0.08 0.04 0.02 0.03 0.04 0.05 0.05 0.03 0.04 0.01 0.02 0.04 0.14 0.20 0.18 0.24 0.32 0.21 0.24 0.23 0.04 0.02 0.03 0.04 0.09 0.08 0.07 0.04 0.07 0.08 0.06 0.06 0.06 0.08 0.07 0.14 0.16 0.24 0.20 0.23
0.15 0.32 0.51 0.31 0.49 0.13 0.26 0.72 0.53 0.35 0.64 0.11 0.11 0.22 0.31 0.22 0.40 0.28 0.20 0.12 0.15 0.07 0.01 0.02 0.04 0.03 0.16 0.02 0.12 0.05 0.02 0.04 0.02 0.01 0.03 0.04 0.03 0.04 0.05 0.07 0.08 0.09 0.09 0.15 0.13 0.17 0.20 0.13 0.20 0.25 0.27 0.33 0.37 0.36 0.32 0.20 0.18 0.11 0.06 0.05 0.02 0.05 0.05 0.03 0.01 0.01 0.00 0.04 0.06 0.23 0.17 0.19 0.37 0.39 0.19 0.24 0.14 0.05 0.02 0.00 0.02 0.04 0.04 0.05 0.07 0.10 0.07 0.06 0.05 0.07 0.11 0.06 0.08 0.10 0.18 0.19 0.11
0.06 0.22 0.21 0.28 0.88 0.54 0.09 0.49 0.07 0.35 0.39 0.13 0.02 0.07 0.40 0.11 0.10 0.14 0.18 0.26 0.11 0.00 0.01 0.09 0.00 0.13 0.07 0.02 0.01 0.00 0.00 0.01 0.02 0.02 0.03 0.07 0.06 0.06 0.06 0.07 0.14 0.17 0.12 0.17 0.17 0.16 0.15 0.10 0.19 0.22 0.28 0.28 0.32 0.28 0.33 0.29 0.15 0.04 0.02 0.03 0.01 0.03 0.01 0.01 0.00 0.01 0.01 0.00 0.05 0.19 0.17 0.29 0.32 0.30 0.20 0.44 0.29 0.09 0.10 0.09 0.01 0.05 0.05 0.03 0.06 0.05 0.04 0.06 0.06 0.05 0.07 0.07 0.06 0.05 0.06 0.10 0.09
0.01 0.11 0.47 0.43 0.68 0.57 0.13 0.39 0.08 0.95 0.20 0.12 0.35 0.10 0.05 0.03 0.03 0.07 0.03 0.20 0.05 0.00 0.00 0.00 0.06 0.01 0.00 0.00 0.01 0.00 0.01 0.00 0.01 0.02 0.04 0.12 0.12 0.21 0.23 0.21 0.20 0.23 0.24 0.26 0.16 0.16 0.18 0.13 0.11 0.18 0.17 0.20 0.14 0.20 0.29 0.25 0.18 0.08 0.04 0.01 0.02 0.01 0.00 0.01 0.00 0.01 0.00 0.01 0.09 0.13 0.17 0.13 0.06 0.10 0.11 0.21 0.10 0.11 0.09 0.04 0.02 0.03 0.02 0.05 0.08 0.05 0.08 0.06 0.12 0.09 0.07 0.08 0.18 0.11 0.11 0.06 0.11
0.03 0.24 0.32 0.49 0.79 0.61 0.32 0.46 0.04 0.02 0.37 0.06 0.04 0.01 0.23 0.00 0.00 0.00 0.00 0.07 0.01 0.00 0.00 0.00 0.00 0.00 0.00 0.00 0.00 0.00 0.01 0.01 0.03 0.04 0.06 0.10 0.11 0.16 0.19 0.21 0.18 0.25 0.20 0.28 0.23 0.16 0.16 0.14 0.15 0.14 0.23 0.17 0.18 0.24 0.17 0.14 0.11 0.15 0.14 0.08 0.17 0.05 0.03 0.03 0.08 0.12 0.09 0.12 0.01 0.14 0.13 0.12 0.09 0.14 0.18 0.11 0.22 0.08 0.16 0.10 0.02 0.04 0.06 0.04 0.10 0.09 0.06 0.08 0.10 0.11 0.12 0.07 0.09 0.14 0.08 0.19 0.29
0.05 0.09 0.25 1.44 0.63 0.33 0.25 0.04 0.21 0.46 0.40 0.11 0.06 0.03 0.00 0.01 0.00 0.00 0.02 0.00 0.00 0.02 0.00 0.00 0.00 0.00 0.00 0.00 0.00 0.00 0.01 0.02 0.01 0.02 0.04 0.03 0.05 0.04 0.08 0.11 0.08 0.13 0.17 0.19 0.28 0.20 0.13 0.12 0.08 0.09 0.11 0.18 0.20 0.21 0.20 0.07 0.12 0.16 0.12 0.10 0.05 0.02 0.07 0.09 0.08 0.06 0.08 0.14 0.14 0.18 0.19 0.31 0.12 0.14 0.14 0.13 0.19 0.06 0.10 0.03 0.10 0.03 0.02 0.03 0.09 0.11 0.07 0.14 0.13 0.11 0.13 0.09 0.12 0.15 0.23 0.15 0.39
0.01 0.01 0.75 0.91 0.73 0.20 0.01 0.03 0.03 0.02 0.20 0.03 0.01 0.01 0.00 0.05 0.00 0.00 0.02 0.00 0.00 0.06 0.02 0.00 0.00 0.00 0.00 0.01 0.00 0.00 0.01 0.01 0.01 0.01 0.01 0.02 0.02 0.04 0.07 0.06 0.07 0.04 0.08 0.10 0.14 0.16 0.12 0.10 0.07 0.05 0.09 0.12 0.12 0.19 0.09 0.15 0.15 0.26 0.13 0.11 0.19 0.04 0.04 0.11 0.10 0.11 0.09 0.21 0.07 0.10 0.12 0.14 0.09 0.07 0.07 0.09 0.07 0.07 0.11 0.02 0.09 0.10 0.09 0.06 0.05 0.15 0.03 0.04 0.07 0.06 0.11 0.22 0.16 0.30 0.40 0.49 0.53
0.00 0.01 0.20 1.15 0.31 0.32 0.07 0.02 0.00 0.05 0.00 0.12 0.02 0.00 0.01 0.01 0.00 0.06 0.01 0.01 0.01 0.00 0.02 0.01 0.00 0.00 0.00 0.00 0.00 0.00 0.01 0.01 0.03 0.01 0.01 0.02 0.02 0.01 0.05 0.03 0.08 0.04 0.05 0.07 0.11 0.09 0.10 0.15 0.16 0.09 0.10 0.10 0.11 0.10 0.17 0.08 0.13 0.14 0.13 0.16 0.19 0.04 0.15 0.13 0.09 0.09 0.13 0.17 0.07 0.08 0.14 0.07 0.08 0.06 0.16 0.07 0.19 0.19 0.17 0.22 0.19 0.30 0.25 0.31 0.10 0.23 0.28 0.25 0.24 0.38 0.85 0.50 0.40 0.53 0.51 0.45 0.61
0.00 0.01 0.01 0.30 0.28 0.08 0.07 0.11 0.01 0.00 0.00 0.02 0.01 0.01 0.26 0.00 0.01 0.01 0.11 0.67 0.18 0.09 0.01 0.00 0.00 0.00 0.00 0.00 0.00 0.00 0.00 0.00 0.01 0.01 0.00 0.00 0.01 0.01 0.03 0.01 0.03 0.02 0.03 0.08 0.07 0.07 0.09 0.10 0.07 0.09 0.09 0.08 0.07 0.06 0.04 0.07 0.06 0.12 0.22 0.04 0.08 0.05 0.03 0.09 0.11 0.06 0.08 0.05 0.20 0.15 0.03 0.03 0.10 0.29 0.18 0.06 0.09 0.12 0.17 0.27 0.22 0.17 0.14 0.23 0.33 0.54 0.25 0.31 0.38 0.29 0.44 0.37 0.46 0.60 0.49 0.59 0.45
0.00 0.00 0.00 0.00 0.09 0.26 0.22 0.07 0.01 0.00 0.00 0.01 0.01 0.00 0.00 0.00 0.00 0.01 0.05 0.41 0.08 0.10 0.01 0.00 0.00 0.00 0.00 0.00 0.00 0.01 0.00 0.00 0.00 0.00 0.00 0.00 0.01 0.00 0.01 0.04 0.05 0.02 0.01 0.03 0.03 0.07 0.07 0.09 0.06 0.05 0.10 0.08 0.06 0.06 0.06 0.10 0.11 0.07 0.09 0.06 0.04 0.05 0.06 0.05 0.04 0.22 0.05 0.05 0.11 0.04 0.04 0.15 0.12 0.08 0.10 0.10 0.14 0.19 0.32 0.34 0.23 0.26 0.20 0.29 0.24 0.23 0.24 0.44 0.46 0.56 0.38 0.56 0.51 0.48 0.72 0.75 0.58
0.00 0.00 0.00 0.00 0.00 0.01 0.12 0.19 0.01 0.00 0.00 0.00 0.00 0.00 0.00 0.00 0.05 0.04 0.09 0.08 0.01 0.10 0.00 0.00 0.00 0.00 0.00 0.00 0.00 0.00 0.00 0.00 0.00 0.01 0.00 0.00 0.00 0.00 0.00 0.03 0.01 0.01 0.01 0.01 0.03 0.05 0.07 0.08 0.04 0.05 0.05 0.08 0.09 0.06 0.05 0.10 0.11 0.10 0.07 0.08 0.05 0.03 0.06 0.03 0.18 0.14 0.04 0.14 0.19 0.08 0.01 0.06 0.06 0.05 0.08 0.16 0.36 0.27 0.18 0.23 0.34 0.47 0.44 0.52 0.31 0.23 0.25 0.30 0.41 0.54 0.29 0.80 0.61 0.55 0.30 0.67 0.77
0.00 0.00 0.00 0.00 0.00 0.01 0.00 0.00 0.01 0.00 0.00 0.00 0.00 0.00 0.00 0.00 0.03 0.03 0.10 0.03 0.01 0.00 0.00 0.00 0.00 0.00 0.00 0.00 0.00 0.00 0.00 0.01 0.00 0.00 0.00 0.00 0.01 0.00 0.02 0.00 0.00 0.00 0.00 0.02 0.01 0.03 0.03 0.04 0.08 0.04 0.05 0.05 0.05 0.05 0.04 0.03 0.04 0.06 0.03 0.07 0.05 0.04 0.02 0.06 0.06 0.09 0.05 0.03 0.14 0.13 0.08 0.08 0.04 0.06 0.09 0.18 0.28 0.58 0.62 0.56 0.55 0.52 0.16 0.25 0.44 0.71 0.47 0.48 0.69 0.68 0.75 0.79 0.83 0.51 0.58 0.40 0.19
0.00 0.00 0.00 0.00 0.00 0.00 0.00 0.00 0.00 0.00 0.00 0.00 0.00 0.00 0.00 0.00 0.01 0.03 0.03 0.05 0.00 0.00 0.00 0.00 0.00 0.00 0.00 0.00 0.00 0.00 0.00 0.00 0.00 0.00 0.00 0.00 0.00 0.01 0.01 0.00 0.00 0.00 0.00 0.00 0.01 0.02 0.03 0.03 0.04 0.05 0.02 0.03 0.04 0.05 0.03 0.04 0.03 0.03 0.03 0.03 0.05 0.06 0.08 0.02 0.06 0.09 0.08 0.09 0.07 0.07 0.08 0.16 0.09 0.04 0.08 0.11 0.23 0.63 0.55 0.33 0.35 0.24 0.18 0.27 0.20 0.57 0.35 0.44 0.75 0.65 1.01 0.79 0.58 0.33 0.26 0.22 0.50
0.00 0.00 0.00 0.00 0.00 0.00 0.00 0.00 0.00 0.00 0.00 0.00 0.00 0.00 0.03 0.00 0.00 0.07 0.02 0.01 0.00 0.00 0.00 0.00 0.00 0.00 0.00 0.00 0.00 0.00 0.00 0.00 0.00 0.00 0.00 0.00 0.00 0.00 0.00 0.00 0.00 0.00 0.00 0.00 0.02 0.04 0.03 0.03 0.04 0.03 0.02 0.02 0.03 0.03 0.02 0.02 0.02 0.03 0.02 0.02 0.04 0.03 0.03 0.04 0.06 0.08 0.12 0.17 0.10 0.04 0.04 0.14 0.07 0.05 0.05 0.28 0.53 0.84 0.44 0.16 0.46 0.35 0.19 0.31 0.40 0.28 0.20 0.35 0.62 0.30 0.35 0.32 0.34 0.31 0.26 0.15 0.25
0.00 0.00 0.00 0.00 0.00 0.00 0.00 0.00 0.00 0.00 0.00 0.00 0.00 0.01 0.07 0.02 0.00 0.11 0.01 0.02 0.02 0.00 0.00 0.00 0.00 0.00 0.00 0.00 0.00 0.00 0.00 0.00 0.00 0.00 0.00 0.00 0.00 0.01 0.00 0.01 0.00 0.00 0.00 0.00 0.02 0.01 0.01 0.02 0.05 0.03 0.03 0.03 0.02 0.02 0.02 0.02 0.02 0.03 0.05 0.03 0.04 0.02 0.02 0.02 0.04 0.03 0.04 0.14 0.14 0.06 0.02 0.04 0.13 0.03 0.08 0.38 0.49 0.41 0.33 0.41 0.29 0.23 0.14 0.21 0.26 0.27 0.23 0.12 0.26 0.20 0.20 0.49 0.38 0.33 0.27 0.43 0.37
0.00 0.00 0.00 0.00 0.00 0.00 0.00 0.00 0.00 0.00 0.00 0.00 0.00 0.03 0.10 0.09 0.00 0.00 0.02 0.03 0.00 0.00 0.00 0.00 0.00 0.00 0.00 0.00 0.00 0.00 0.00 0.00 0.00 0.00 0.00 0.00 0.00 0.00 0.00 0.00 0.01 0.00 0.00 0.03 0.00 0.00 0.00 0.01 0.01 0.02 0.01 0.02 0.02 0.01 0.02 0.01 0.03 0.02 0.02 0.02 0.03 0.04 0.02 0.02 0.02 0.01 0.05 0.03 0.06 0.02 0.03 0.03 0.01 0.04 0.05 0.07 0.25 0.12 0.16 0.25 0.09 0.23 0.21 0.21 0.32 0.34 0.23 0.26 0.32 0.27 0.33 0.48 0.36 0.26 0.29 0.33 0.48
0.00 0.00 0.00 0.00 0.00 0.00 0.00 0.00 0.00 0.00 0.00 0.00 0.00 0.24 0.13 0.17 0.02 0.02 0.01 0.01 0.02 0.03 0.01 0.00 0.01 0.00 0.00 0.00 0.00 0.00 0.00 0.00 0.00 0.00 0.00 0.00 0.00 0.00 0.01 0.01 0.00 0.01 0.00 0.02 0.00 0.01 0.01 0.02 0.01 0.04 0.02 0.02 0.01 0.01 0.01 0.01 0.02 0.01 0.01 0.01 0.02 0.02 0.04 0.04 0.02 0.00 0.02 0.03 0.01 0.01 0.04 0.06 0.02 0.02 0.04 0.04 0.08 0.16 0.07 0.22 0.29 0.22 0.34 0.46 0.26 0.73 0.56 0.46 0.33 0.23 0.16 0.25 0.29 0.46 0.42 0.26 0.23
0.00 0.00 0.00 0.00 0.00 0.00 0.00 0.00 0.00 0.00 0.00 0.00 0.00 0.25 0.08 0.05 0.01 0.00 0.03 0.07 0.01 0.05 0.04 0.03 0.02 0.00 0.01 0.00 0.01 0.01 0.00 0.00 0.00 0.00 0.00 0.00 0.00 0.00 0.02 0.00 0.01 0.01 0.00 0.01 0.00 0.00 0.00 0.01 0.01 0.02 0.02 0.02 0.02 0.02 0.01 0.01 0.02 0.03 0.01 0.01 0.02 0.03 0.03 0.01 0.00 0.01 0.01 0.01 0.01 0.06 0.10 0.01 0.06 0.11 0.09 0.11 0.07 0.17 0.13 0.17 0.38 0.24 0.35 0.30 0.22 0.31 0.28 0.18 0.21 0.49 0.73 0.47 0.30 0.20 0.20 0.13 0.13
0.00 0.00 0.00 0.00 0.00 0.00 0.00 0.00 0.00 0.00 0.00 0.00 0.00 0.10 0.13 0.05 0.02 0.01 0.02 0.06 0.02 0.23 0.04 0.00 0.00 0.00 0.01 0.02 0.02 0.03 0.03 0.00 0.00 0.00 0.00 0.00 0.00 0.00 0.01 0.00 0.00 0.00 0.00 0.02 0.02 0.01 0.00 0.04 0.04 0.01 0.01 0.01 0.03 0.01 0.01 0.01 0.02 0.04 0.01 0.01 0.00 0.01 0.00 0.01 0.03 0.01 0.02 0.02 0.02 0.08 0.09 0.04 0.05 0.20 0.20 0.12 0.20 0.21 0.31 0.24 0.45 0.48 0.22 0.20 0.23 0.24 0.20 0.24 0.17 0.26 0.25 0.19 0.15 0.13 0.09 0.05 0.02
0.00 0.00 0.00 0.01 0.00 0.00 0.00 0.00 0.00 0.00 0.00 0.00 0.00 0.19 0.09 0.25 0.01 0.02 0.10 0.03 0.04 0.06 0.07 0.00 0.00 0.00 0.00 0.00 0.03 0.03 0.02 0.02 0.00 0.00 0.00 0.02 0.00 0.00 0.02 0.00 0.00 0.00 0.03 0.02 0.02 0.01 0.01 0.01 0.01 0.01 0.01 0.00 0.03 0.01 0.00 0.00 0.03 0.02 0.01 0.01 0.01 0.00 0.01 0.06 0.05 0.02 0.04 0.04 0.01 0.01 0.10 0.08 0.06 0.16 0.16 0.21 0.17 0.28 0.34 0.30 0.26 0.20 0.28 0.21 0.19 0.22 0.33 0.20 0.14 0.18 0.23 0.16 0.07 0.15 0.06 0.04 0.14
0.00 0.00 0.00 0.00 0.00 0.00 0.00 0.00 0.00 0.00 0.00 0.00 0.00 0.01 0.12 0.03 0.02 0.03 0.02 0.03 0.01 0.01 0.05 0.05 0.02 0.00 0.01 0.02 0.01 0.01 0.05 0.05 0.04 0.02 0.02 0.01 0.01 0.02 0.01 0.02 0.03 0.05 0.00 0.02 0.01 0.00 0.00 0.00 0.00 0.00 0.00 0.01 0.01 0.01 0.01 0.00 0.06 0.02 0.01 0.04 0.02 0.02 0.05 0.03 0.02 0.05 0.05 0.04 0.15 0.24 0.11 0.12 0.11 0.12 0.28 0.29 0.22 0.17 0.14 0.27 0.21 0.16 0.16 0.14 0.20 0.28 0.33 0.21 0.10 0.10 0.29 0.13 0.07 0.06 0.06 0.02 0.01
0.00 0.00 0.00 0.00 0.00 0.00 0.00 0.00 0.00 0.00 0.00 0.02 0.01 0.00 0.00 0.01 0.04 0.02 0.04 0.03 0.02 0.01 0.09 0.04 0.02 0.04 0.01 0.02 0.01 0.04 0.04 0.04 0.05 0.02 0.02 0.01 0.00 0.01 0.01 0.01 0.01 0.00 0.00 0.00 0.00 0.00 0.00 0.00 0.00 0.00 0.00 0.00 0.00 0.00 0.00 0.01 0.01 0.02 0.01 0.03 0.08 0.04 0.04 0.03 0.03 0.06 0.03 0.10 0.11 0.12 0.08 0.11 0.16 0.18 0.12 0.10 0.07 0.14 0.12 0.26 0.22 0.14 0.15 0.15 0.15 0.25 0.29 0.23 0.09 0.10 0.15 0.09 0.06 0.08 0.03 0.02 0.02
0.00 0.00 0.00 0.00 0.00 0.00 0.01 0.00 0.00 0.00 0.00 0.00 0.03 0.02 0.03 0.02 0.01 0.02 0.01 0.03 0.03 0.06 0.05 0.24 0.19 0.11 0.05 0.07 0.04 0.03 0.06 0.06 0.01 0.07 0.02 0.00 0.01 0.01 0.01 0.00 0.00 0.01 0.01 0.00 0.01 0.00 0.00 0.00 0.00 0.00 0.00 0.00 0.00 0.01 0.01 0.01 0.02 0.06 0.03 0.03 0.02 0.03 0.05 0.11 0.04 0.02 0.13 0.29 0.13 0.09 0.06 0.14 0.07 0.07 0.09 0.04 0.02 0.04 0.11 0.21 0.21 0.16 0.17 0.22 0.22 0.41 0.20 0.23 0.14 0.13 0.14 0.10 0.14 0.12 0.10 0.09 0.07
0.00 0.00 0.00 0.00 0.00 0.00 0.00 0.00 0.00 0.00 0.00 0.00 0.00 0.01 0.04 0.02 0.04 0.02 0.01 0.00 0.05 0.05 0.13 0.29 0.07 0.02 0.03 0.12 0.08 0.06 0.07 0.05 0.02 0.03 0.04 0.01 0.01 0.00 0.00 0.00 0.01 0.01 0.00 0.00 0.00 0.00 0.00 0.00 0.00 0.01 0.01 0.00 0.01 0.01 0.02 0.05 0.07 0.05 0.02 0.02 0.08 0.05 0.05 0.07 0.04 0.06 0.13 0.19 0.13 0.06 0.09 0.07 0.09 0.14 0.11 0.05 0.02 0.06 0.07 0.15 0.15 0.05 0.07 0.20 0.09 0.12 0.20 0.17 0.11 0.09 0.12 0.14 0.12 0.03 0.02 0.01 0.01
0.00 0.00 0.00 0.00 0.00 0.00 0.00 0.00 0.00 0.00 0.00 0.01 0.01 0.01 0.01 0.05 0.04 0.02 0.03 0.01 0.00 0.00 0.02 0.24 0.01 0.01 0.05 0.07 0.08 0.03 0.07 0.02 0.03 0.03 0.02 0.05 0.04 0.00 0.00 0.00 0.00 0.00 0.00 0.00 0.00 0.00 0.00 0.01 0.01 0.01 0.02 0.00 0.00 0.02 0.05 0.02 0.03 0.06 0.02 0.03 0.02 0.04 0.04 0.05 0.03 0.02 0.06 0.07 0.06 0.07 0.09 0.12 0.11 0.09 0.11 0.11 0.12 0.20 0.20 0.05 0.02 0.04 0.04 0.12 0.14 0.10 0.18 0.16 0.09 0.17 0.11 0.24 0.06 0.02 0.02 0.01 0.01
0.00 0.00 0.00 0.00 0.00 0.00 0.00 0.00 0.00 0.00 0.00 0.00 0.00 0.00 0.02 0.03 0.01 0.01 0.01 0.01 0.01 0.00 0.00 0.12 0.01 0.03 0.05 0.07 0.07 0.03 0.03 0.04 0.02 0.05 0.06 0.01 0.00 0.01 0.01 0.00 0.00 0.00 0.00 0.00 0.00 0.00 0.00 0.00 0.00 0.00 0.00 0.01 0.02 0.02 0.01 0.03 0.03 0.02 0.01 0.01 0.01 0.01 0.01 0.01 0.01 0.03 0.02 0.02 0.02 0.03 0.07 0.07 0.03 0.06 0.03 0.06 0.09 0.16 0.13 0.05 0.07 0.05 0.05 0.12 0.06 0.19 0.13 0.15 0.11 0.13 0.22 0.09 0.05 0.05 0.02 0.00 0.02
0.00 0.00 0.00 0.00 0.00 0.00 0.00 0.00 0.00 0.00 0.00 0.00 0.00 0.01 0.01 0.02 0.00 0.00 0.02 0.05 0.00 0.00 0.00 0.04 0.13 0.04 0.03 0.06 0.05 0.05 0.02 0.02 0.05 0.02 0.03 0.02 0.04 0.00 0.00 0.00 0.00 0.00 0.00 0.00 0.00 0.00 0.00 0.00 0.00 0.00 0.00 0.02 0.01 0.01 0.03 0.01 0.00 0.00 0.00 0.01 0.00 0.01 0.03 0.01 0.00 0.01 0.02 0.02 0.03 0.01 0.08 0.08 0.06 0.07 0.10 0.13 0.06 0.10 0.04 0.08 0.10 0.09 0.12 0.09 0.11 0.11 0.11 0.16 0.09 0.17 0.21 0.14 0.06 0.06 0.03 0.03 0.05
0.00 0.00 0.00 0.00 0.00 0.00 0.00 0.00 0.00 0.00 0.00 0.00 0.00 0.00 0.00 0.07 0.02 0.01 0.00 0.00 0.01 0.01 0.02 0.01 0.00 0.01 0.04 0.03 0.01 0.01 0.05 0.04 0.07 0.05 0.02 0.01 0.00 0.00 0.00 0.00 0.00 0.00 0.00 0.00 0.00 0.00 0.00 0.00 0.00 0.00 0.00 0.00 0.00 0.00 0.00 0.00 0.02 0.01 0.02 0.01 0.01 0.01 0.00 0.01 0.02 0.02 0.01 0.02 0.03 0.02 0.08 0.07 0.10 0.07 0.08 0.14 0.05 0.02 0.03 0.05 0.04 0.04 0.05 0.11 0.11 0.07 0.15 0.20 0.21 0.21 0.19 0.09 0.12 0.14 0.08 0.04 0.03
0.00 0.00 0.00 0.00 0.00 0.00 0.00 0.00 0.00 0.00 0.00 0.00 0.00 0.02 0.07 0.14 0.05 0.03 0.00 0.00 0.00 0.03 0.00 0.00 0.00 0.03 0.01 0.01 0.01 0.04 0.01 0.01 0.00 0.03 0.03 0.02 0.02 0.01 0.00 0.00 0.00 0.00 0.00 0.00 0.00 0.00 0.00 0.00 0.00 0.00 0.00 0.00 0.00 0.00 0.00 0.00 0.00 0.00 0.02 0.03 0.01 0.01 0.01 0.01 0.00 0.00 0.01 0.01 0.01 0.01 0.06 0.14 0.12 0.07 0.02 0.03 0.01 0.01 0.02 0.03 0.03 0.04 0.09 0.06 0.07 0.12 0.24 0.12 0.16 0.13 0.20 0.19 0.16 0.11 0.06 0.11 0.04
0.00 0.00 0.00 0.00 0.00 0.00 0.00 0.00 0.00 0.01 0.03 0.01 0.00 0.03 0.05 0.03 0.17 0.09 0.01 0.01 0.00 0.01 0.00 0.00 0.01 0.00 0.07 0.05 0.01 0.05 0.03 0.05 0.02 0.00 0.02 0.09 0.04 0.02 0.04 0.00 0.00 0.00 0.00 0.00 0.00 0.00 0.00 0.00 0.00 0.00 0.00 0.00 0.00 0.00 0.00 0.00 0.00 0.01 0.00 0.01 0.00 0.01 0.01 0.00 0.00 0.00 0.00 0.00 0.00 0.01 0.01 0.01 0.01 0.01 0.01 0.01 0.01 0.01 0.02 0.04 0.07 0.03 0.08 0.09 0.07 0.08 0.09 0.14 0.22 0.17 0.13 0.12 0.18 0.20 0.15 0.09 0.03
0.00 0.00 0.00 0.00 0.00 0.00 0.00 0.00 0.00 0.00 0.00 0.00 0.00 0.00 0.03 0.03 0.02 0.01 0.00 0.00 0.00 0.00 0.00 0.00 0.00 0.00 0.04 0.04 0.02 0.02 0.03 0.05 0.01 0.02 0.00 0.01 0.02 0.01 0.00 0.00 0.00 0.00 0.00 0.00 0.00 0.00 0.00 0.00 0.00 0.00 0.00 0.00 0.00 0.00 0.00 0.00 0.00 0.00 0.00 0.00 0.00 0.00 0.00 0.00 0.00 0.00 0.00 0.00 0.01 0.01 0.01 0.01 0.01 0.01 0.01 0.01 0.01 0.03 0.02 0.01 0.01 0.03 0.04 0.04 0.06 0.14 0.10 0.13 0.18 0.12 0.15 0.14 0.18 0.09 0.08 0.06 0.03
0.00 0.00 0.00 0.00 0.00 0.00 0.00 0.00 0.00 0.00 0.00 0.01 0.01 0.00 0.06 0.00 0.00 0.00 0.01 0.00 0.01 0.01 0.00 0.01 0.00 0.01 0.02 0.02 0.02 0.03 0.02 0.02 0.01 0.01 0.00 0.01 0.00 0.01 0.01 0.00 0.00 0.01 0.00 0.00 0.00 0.00 0.00 0.00 0.00 0.00 0.00 0.00 0.00 0.00 0.00 0.00 0.00 0.00 0.00 0.00 0.00 0.00 0.00 0.00 0.00 0.00 0.00 0.00 0.00 0.00 0.00 0.00 0.00 0.01 0.01 0.02 0.03 0.01 0.01 0.01 0.01 0.02 0.02 0.05 0.03 0.09 0.04 0.08 0.09 0.10 0.11 0.11 0.10 0.08 0.07 0.05 0.06
0.00 0.00 0.00 0.00 0.00 0.00 0.00 0.00 0.00 0.00 0.00 0.00 0.00 0.00 0.07 0.01 0.00 0.00 0.00 0.00 0.01 0.01 0.00 0.01 0.00 0.02 0.05 0.02 0.02 0.01 0.02 0.00 0.04 0.03 0.02 0.00 0.00 0.01 0.02 0.02 0.01 0.00 0.00 0.00 0.00 0.00 0.00 0.00 0.00 0.00 0.00 0.00 0.00 0.00 0.00 0.00 0.00 0.00 0.00 0.00 0.00 0.00 0.00 0.00 0.00 0.00 0.00 0.00 0.00 0.00 0.00 0.00 0.00 0.01 0.01 0.01 0.01 0.00 0.01 0.01 0.01 0.01 0.02 0.03 0.02 0.02 0.05 0.05 0.05 0.05 0.06 0.04 0.03 0.08 0.04 0.03 0.05
0.00 0.00 0.00 0.00 0.00 0.00 0.00 0.00 0.00 0.00 0.00 0.00 0.00 0.01 0.00 0.02 0.00 0.00 0.00 0.00 0.00 0.00 0.00 0.00 0.01 0.01 0.02 0.02 0.03 0.02 0.01 0.01 0.03 0.03 0.04 0.00 0.02 0.01 0.00 0.01 0.00 0.00 0.00 0.00 0.00 0.00 0.00 0.00 0.00 0.00 0.00 0.00 0.00 0.00 0.00 0.00 0.00 0.00 0.00 0.00 0.00 0.00 0.00 0.00 0.00 0.00 0.00 0.00 0.00 0.00 0.00 0.00 0.00 0.00 0.00 0.00 0.01 0.00 0.00 0.00 0.00 0.01 0.01 0.01 0.01 0.04 0.02 0.03 0.03 0.02 0.03 0.01 0.02 0.03 0.04 0.04 0.06
0.00 0.00 0.00 0.00 0.00 0.00 0.00 0.00 0.00 0.00 0.00 0.00 0.00 0.00 0.00 0.03 0.00 0.00 0.00 0.00 0.00 0.00 0.00 0.00 0.00 0.00 0.00 0.01 0.03 0.00 0.01 0.03 0.03 0.02 0.04 0.00 0.01 0.00 0.00 0.01 0.00 0.00 0.00 0.00 0.00 0.00 0.00 0.00 0.00 0.00 0.00 0.00 0.00 0.00 0.00 0.00 0.00 0.00 0.00 0.00 0.00 0.00 0.00 0.00 0.00 0.00 0.00 0.00 0.00 0.00 0.00 0.00 0.00 0.00 0.00 0.00 0.00 0.00 0.00 0.00 0.00 0.00 0.01 0.01 0.01 0.01 0.01 0.01 0.01 0.04 0.02 0.02 0.03 0.02 0.02 0.03 0.08
0.00 0.00 0.00 0.00 0.00 0.00 0.00 0.00 0.00 0.00 0.00 0.00 0.00 0.00 0.00 0.00 0.00 0.00 0.00 0.00 0.00 0.00 0.00 0.00 0.00 0.00 0.00 0.01 0.01 0.00 0.00 0.03 0.03 0.01 0.04 0.01 0.00 0.00 0.00 0.00 0.02 0.00 0.00 0.00 0.00 0.00 0.00 0.00 0.00 0.00 0.00 0.00 0.00 0.00 0.00 0.00 0.00 0.00 0.00 0.00 0.00 0.00 0.00 0.00 0.00 0.00 0.00 0.00 0.00 0.00 0.00 0.00 0.00 0.00 0.00 0.00 0.00 0.00 0.00 0.00 0.00 0.00 0.00 0.00 0.00 0.00 0.00 0.00 0.01 0.01 0.02 0.01 0.01 0.01 0.02 0.04 0.03
0.00 0.00 0.00 0.00 0.00 0.00 0.00 0.00 0.00 0.00 0.00 0.00 0.00 0.00 0.00 0.00 0.00 0.00 0.00 0.00 0.00 0.00 0.00 0.00 0.00 0.00 0.00 0.02 0.01 0.00 0.00 0.00 0.02 0.01 0.01 0.00 0.01 0.01 0.00 0.00 0.00 0.00 0.00 0.00 0.00 0.00 0.00 0.00 0.00 0.00 0.00 0.00 0.00 0.00 0.00 0.00 0.00 0.00 0.00 0.00 0.00 0.00 0.00 0.00 0.00 0.00 0.00 0.00 0.00 0.00 0.00 0.00 0.00 0.00 0.00 0.00 0.00 0.00 0.00 0.00 0.00 0.00 0.00 0.00 0.00 0.00 0.00 0.01 0.01 0.01 0.01 0.01 0.01 0.01 0.01 0.01 0.01
0.00 0.00 0.00 0.00 0.00 0.00 0.00 0.00 0.00 0.00 0.00 0.00 0.00 0.00 0.00 0.00 0.00 0.00 0.00 0.00 0.00 0.00 0.00 0.00 0.00 0.00 0.00 0.01 0.01 0.00 0.00 0.00 0.00 0.01 0.03 0.01 0.00 0.01 0.02 0.00 0.01 0.00 0.00 0.00 0.00 0.00 0.00 0.00 0.00 0.00 0.00 0.00 0.00 0.00 0.00 0.00 0.00 0.00 0.00 0.00 0.00 0.00 0.00 0.00 0.00 0.00 0.00 0.00 0.00 0.00 0.00 0.00 0.00 0.00 0.00 0.00 0.00 0.00 0.00 0.00 0.00 0.00 0.00 0.00 0.00 0.01 0.01 0.01 0.01 0.01 0.01 0.01 0.01 0.01 0.00 0.01 0.05
0.00 0.00 0.00 0.00 0.00 0.00 0.00 0.00 0.00 0.00 0.00 0.00 0.01 0.00 0.00 0.00 0.00 0.00 0.00 0.00 0.00 0.00 0.00 0.00 0.00 0.00 0.00 0.01 0.00 0.00 0.00 0.00 0.00 0.01 0.03 0.01 0.01 0.01 0.01 0.00 0.00 0.00 0.00 0.00 0.00 0.00 0.00 0.00 0.00 0.00 0.00 0.00 0.00 0.00 0.00 0.00 0.00 0.00 0.00 0.00 0.00 0.00 0.00 0.00 0.00 0.00 0.00 0.00 0.00 0.00 0.00 0.00 0.00 0.00 0.00 0.00 0.00 0.00 0.00 0.00 0.00 0.00 0.00 0.00 0.01 0.01 0.00 0.01 0.01 0.01 0.01 0.01 0.02 0.01 0.01 0.01 0.02
0.00 0.00 0.00 0.00 0.00 0.00 0.00 0.00 0.00 0.00 0.00 0.00 0.00 0.00 0.00 0.00 0.00 0.00 0.00 0.00 0.00 0.00 0.00 0.00 0.00 0.00 0.00 0.00 0.00 0.01 0.00 0.00 0.00 0.02 0.00 0.02 0.01 0.04 0.04 0.00 0.00 0.00 0.00 0.00 0.00 0.00 0.00 0.00 0.00 0.00 0.00 0.00 0.00 0.00 0.00 0.00 0.00 0.00 0.00 0.00 0.00 0.00 0.00 0.00 0.00 0.00 0.00 0.00 0.00 0.00 0.00 0.00 0.00 0.00 0.00 0.00 0.00 0.00 0.00 0.00 0.00 0.01 0.00 0.00 0.00 0.00 0.01 0.00 0.01 0.01 0.02 0.01 0.01 0.01 0.01 0.01 0.02
0.00 0.00 0.00 0.00 0.00 0.00 0.00 0.00 0.00 0.00 0.00 0.00 0.00 0.00 0.00 0.00 0.00 0.00 0.00 0.00 0.00 0.00 0.00 0.00 0.00 0.00 0.00 0.00 0.00 0.00 0.04 0.01 0.00 0.00 0.00 0.00 0.00 0.02 0.04 0.03 0.01 0.01 0.00 0.00 0.00 0.00 0.00 0.00 0.00 0.00 0.00 0.00 0.00 0.00 0.00 0.00 0.00 0.00 0.00 0.00 0.00 0.00 0.00 0.00 0.00 0.00 0.00 0.00 0.00 0.00 0.00 0.00 0.00 0.00 0.00 0.00 0.00 0.00 0.00 0.00 0.00 0.00 0.00 0.00 0.00 0.01 0.00 0.01 0.02 0.02 0.01 0.01 0.01 0.01 0.01 0.01 0.01
0.00 0.00 0.00 0.00 0.00 0.00 0.00 0.00 0.00 0.00 0.00 0.00 0.00 0.00 0.00 0.00 0.00 0.00 0.00 0.00 0.00 0.00 0.00 0.00 0.00 0.00 0.00 0.00 0.00 0.00 0.02 0.00 0.03 0.07 0.05 0.02 0.04 0.04 0.00 0.03 0.00 0.00 0.00 0.00 0.00 0.00 0.00 0.00 0.00 0.00 0.00 0.00 0.00 0.00 0.00 0.00 0.00 0.00 0.00 0.00 0.00 0.00 0.00 0.00 0.00 0.00 0.00 0.00 0.00 0.00 0.00 0.00 0.00 0.00 0.00 0.00 0.00 0.00 0.00 0.00 0.00 0.00 0.00 0.00 0.00 0.00 0.00 0.01 0.01 0.01 0.01 0.04 0.03 0.02 0.03 0.03 0.04
0.00 0.00 0.00 0.00 0.00 0.00 0.00 0.00 0.00 0.00 0.00 0.00 0.00 0.00 0.00 0.00 0.00 0.00 0.00 0.00 0.00 0.00 0.00 0.00 0.00 0.00 0.00 0.00 0.00 0.00 0.01 0.01 0.02 0.03 0.03 0.02 0.01 0.01 0.03 0.04 0.00 0.00 0.00 0.00 0.00 0.02 0.00 0.00 0.00 0.00 0.00 0.00 0.00 0.00 0.00 0.00 0.00 0.00 0.00 0.00 0.00 0.00 0.00 0.00 0.00 0.00 0.00 0.00 0.00 0.00 0.00 0.00 0.00 0.00 0.00 0.00 0.00 0.00 0.00 0.00 0.00 0.00 0.00 0.00 0.00 0.01 0.00 0.00 0.01 0.00 0.03 0.01 0.02 0.01 0.02 0.02 0.04
0.00 0.00 0.00 0.00 0.00 0.00 0.00 0.00 0.00 0.00 0.00 0.00 0.00 0.00 0.00 0.00 0.00 0.00 0.00 0.00 0.00 0.00 0.00 0.00 0.00 0.00 0.00 0.00 0.00 0.00 0.00 0.01 0.01 0.01 0.01 0.04 0.02 0.03 0.03 0.01 0.00 0.00 0.00 0.00 0.01 0.01 0.00 0.00 0.00 0.00 0.00 0.00 0.00 0.00 0.00 0.00 0.00 0.00 0.00 0.00 0.00 0.00 0.00 0.00 0.00 0.00 0.00 0.00 0.00 0.00 0.00 0.00 0.00 0.00 0.00 0.00 0.00 0.00 0.00 0.00 0.00 0.02 0.02 0.01 0.01 0.02 0.00 0.00 0.01 0.01 0.01 0.01 0.01 0.02 0.02 0.01 0.02
0.00 0.00 0.00 0.00 0.00 0.00 0.00 0.00 0.00 0.00 0.00 0.00 0.00 0.00 0.00 0.00 0.00 0.00 0.00 0.00 0.00 0.00 0.00 0.00 0.00 0.00 0.00 0.00 0.00 0.00 0.00 0.00 0.00 0.00 0.03 0.01 0.04 0.04 0.00 0.00 0.00 0.00 0.00 0.00 0.00 0.00 0.00 0.00 0.00 0.00 0.00 0.00 0.00 0.00 0.00 0.00 0.00 0.00 0.00 0.00 0.00 0.00 0.00 0.00 0.00 0.00 0.00 0.00 0.00 0.00 0.00 0.00 0.00 0.00 0.00 0.00 0.02 0.03 0.04 0.01 0.00 0.00 0.00 0.01 0.02 0.02 0.03 0.01 0.01 0.01 0.02 0.01 0.02 0.02 0.01 0.01 0.01